weather.gov     
National Weather Service

Other Public Products
NWS Homepage
This page is being discontinued on March 12, 2014.
The same data is available at this site. Please update your bookmarks.
Thank you, and we apologize for the inconvenience.
Please send an email to SR-SRH.Webmaster@noaa.gov with any concerns.


Current Version
Previous Version:    01  02  03  04  05  06  07  08  09  10  11  12  13  14  15  16  17  18  19  20  21  22  23  24  25  26  27  28  29  30  
   31  32  33  34  35  36  37  38  39  40  41  42  43  44  45  46  47  48  49  50  51  52  53  54  55  56  57  58  59  60  
[Printable]
616
FPUS83 KFGF 290010
OPUFGF
PRAIRIE TO PINES WEATHER ROUNDUP
NATIONAL WEATHER SERVICE EASTERN NORTH DAKOTA/GRAND FORKS ND
600 PM CST WED JAN 28 2015

 **SATELLITE DATA USED TO AUGMENT SKY COVER AT AUTOMATED STATIONS**
 *****  WEATHER ACROSS EASTERN NORTH DAKOTA  *****

CITY           SKY/WX    TMP DP  RH WIND       PRES   REMARKS
GRAND FORKS    CLOUDY    32  30  92 N20G31    29.88R WCI  20
6HR MIN TEMP:  32; 6HR MAX TEMP:  34; 6HR PCP: TRACE;

GRAND FORKS AF FRZ DRZL  32  30  93 N16G24    29.90R WCI  21
GRAND CITY NWS   N/A     32 N/A N/A NW16        N/A  WCI  21
BUXTON         NOT AVBL
DEVILS LAKE    CLOUDY    27  25  93 N23G29    29.96R WCI  12
6HR MIN TEMP:  27; 6HR MAX TEMP:  32;

FARGO          CLOUDY    34  32  92 NW14      29.85R FOG     WCI  25
6HR MIN TEMP:  34; 6HR MAX TEMP:  36;

WAHPETON ARPT  CLOUDY    32  32 100 NW5       29.84R
$$

 *****  WEATHER ACROSS CENTRAL AND WESTERN NORTH DAKOTA  *****

CITY           SKY/WX    TMP DP  RH WIND       PRES   REMARKS
JAMESTOWN      CLOUDY    32  29  88 N20       29.91R WCI  20
6HR MIN TEMP:  32; 6HR MAX TEMP:  33;

BISMARCK       CLOUDY    33  28  81 NW22G37   30.04R WCI  21
6HR MIN TEMP:  33; 6HR MAX TEMP:  38;

MINOT          CLOUDY    28  25  88 NW18      30.06R WCI  15
6HR MIN TEMP:  28; 6HR MAX TEMP:  29;

MINOT AFB      CLOUDY    28  28 100 NW21      30.06R WCI  15
6HR MIN TEMP:  28; 6HR MAX TEMP:  29; 6HR PCP: TRACE;

GARRISON         N/A     30  27  88 NW22      30.07R WCI  17
6HR MIN TEMP:  30; 6HR MAX TEMP:  31;

WILLISTON      CLOUDY    33  29  85 NW20G29   30.19R WCI  21
6HR MIN TEMP:  32; 6HR MAX TEMP:  34;

DICKINSON      CLOUDY    32  29  88 NW26G35   30.10R WCI  18
6HR MIN TEMP:  31; 6HR MAX TEMP:  44;

HETTINGER      CLOUDY    33  28  81 NW29G37   30.09R WCI  19
6HR MIN TEMP:  32; 6HR MAX TEMP:  47;

$$

 *****  OTHER OBSERVATIONS NORTHEAST NORTH DAKOTA  *****

CITY           SKY/WX    TMP DP  RH WIND       PRES   REMARKS
WALHALLA         N/A     23  23 100 NW24      29.96R WCI   7
LANGDON        CLOUDY    23  21  93 N21       29.94R WCI   8
CAVALIER       CLOUDY    25  25 100 NW22G30   29.94R WCI  10
GRAFTON        NOT AVBL
CANDO          CLOUDY    25  25 100 NW20      30.00R WCI  11
FORT TOTTEN      N/A     27  27 100 NW9       29.95S WCI  18
ROLLA          CLOUDY    21  21 100 NW22G31   29.99R WCI   5
RUGBY          MOCLDY    25  23  93 NW21      30.02R WCI  10
 ***** THE ABOVE OBSERVATIONS ARE NON NWS ARE NOT QUALITY
        CONTROLLED AND MAY MIS-REPORT RAIN FOR SNOW...
$$

 *****  OTHER OBSERVATIONS SOUTHEAST NORTH DAKOTA *****

CITY           SKY/WX    TMP DP  RH WIND       PRES   REMARKS
COOPERSTOWN    NOT AVBL
VALLEY CITY    LGT RAIN  32  32 100 N24G30    29.88R WCI  19
OAKES            N/A     32  32 100 NW25      29.88R WCI  19
GWINNER        CLOUDY    34  34 100 N21       29.87R WCI  22
BUFFALO        NOT AVBL
WYNDMERE         N/A     34  34 100 NW16        N/A  WCI  23
 ***** THE ABOVE OBSERVATIONS ARE NON NWS ARE NOT QUALITY
       CONTROLLED AND MAY MIS-REPORT RAIN FOR SNOW...
$$

  *****  WEATHER ACROSS NORTHERN MINNESOTA  *****

CITY           SKY/WX    TMP DP  RH WIND       PRES   REMARKS
FLAG ISLAND    DRIZZLE   28  28 100 NW3       29.82R
WARROAD        CLOUDY    32  28  86 NW6       29.83R FOG
ROSEAU         CLOUDY    34  28  80 NW8       29.83R FOG
HALLOCK        CLOUDY    28  28 100 NW22      29.89R FOG     WCI  15
THF RVR FALLS  CLOUDY    32  32 100 NW10      29.83R WCI  24
6HR MIN TEMP:  32; 6HR MAX TEMP:  34;

HALSTAD          N/A     33  32  96 N13         N/A  WCI  24
FOSSTON        MIX PCPN  30  30 100 W8        29.82R WCI  23
BAUDETTE       CLOUDY    31  30  96 CALM      29.80S FOG
6HR MIN TEMP:  30; 6HR MAX TEMP:  31;

WASKISH        MIX PCPN  32  30  93 CALM      29.81R
CROOKSTON      CLOUDY    32  32 100 N15       29.86R FOG     WCI  22
$$
  *****  WEATHER ACROSS CENTRAL AND WEST MINNESOTA  *****

CITY           SKY/WX    TMP DP  RH WIND       PRES   REMARKS
BEMIDJI        RAIN      31  31  99 CALM      29.79R VSB 1
PARK RAPIDS    FOG       31  31 100 W3        29.79R VSB 3/4
6HR MIN TEMP:  31; 6HR MAX TEMP:  32;

WADENA         FOG       28  28 100 CALM      29.80R VSB 1/2
DETROIT LAKES  CLOUDY    32  32 100 W8        29.82R FOG     WCI  25
MOORHEAD       CLOUDY    34  34 100 NW12      29.85R FOG
FERGUS FALLS   FOG       32  32 100 W3        29.85R VSB 1/2
ELBOW LAKE     FOG       31  31 100 S3        29.81R VSB 1/2
MORRIS MN      FOG       32  32 100 CALM      29.80R VSB 1/4
STAPLES        CLOUDY    28  28 100 CALM      29.80R FOG
WHEATON        CLOUDY    32  30  93 CALM      29.84R FOG
$$
  *****  WEATHER ELSEWHERE ACROSS MINNESOTA  *****

CITY           SKY/WX    TMP DP  RH WIND       PRES   REMARKS
DULUTH         CLOUDY    29  22  75 S5        29.82R WCI  24
6HR MIN TEMP:  25; 6HR MAX TEMP:  29;

INTRNTL FALLS  CLOUDY    27  26  96 CALM      29.81R FOG
6HR MIN TEMP:  27; 6HR MAX TEMP:  28;

ELY            CLOUDY    27  23  86 SW3       29.81R
CLOQUET        CLOUDY    28  23  80 CALM      29.82R
BRAINERD       CLOUDY    29  27  92 S3        29.82R FOG
6HR MIN TEMP:  29; 6HR MAX TEMP:  29;

HIBBING        CLOUDY    28  22  78 CALM      29.81R
6HR MIN TEMP:  26; 6HR MAX TEMP:  28;

ALEXANDRIA     CLOUDY    31  30  96 CALM      29.80R FOG
6HR MIN TEMP:  30; 6HR MAX TEMP:  32;

SAINT CLOUD    CLOUDY    29  28  96 E3        29.81R FOG
6HR MIN TEMP:  29; 6HR MAX TEMP:  30;

MINNEAPOLIS    CLOUDY    31  27  85 SE10      29.81F FOG     WCI  22
6HR MIN TEMP:  28; 6HR MAX TEMP:  31;

$$

  *****  WEATHER ACROSS SOUTH DAKOTA  *****

CITY           SKY/WX    TMP DP  RH WIND       PRES   REMARKS
SIOUX FALLS    PTCLDY    36  33  89 NE5       29.75R
6HR MIN TEMP:  36; 6HR MAX TEMP:  46;

BROOKINGS      NOT AVBL
WATERTOWN      CLOUDY    36  32  85 N9        29.79R
6HR MIN TEMP:  34; 6HR MAX TEMP:  40;

HURON          CLOUDY    42  37  82 MISG      29.83R
6HR MIN TEMP:  39; 6HR MAX TEMP:  46;

SISSETON       NOT AVBL
ABERDEEN       CLOUDY    35  31  85 N24G33    29.90R WCI  23
6HR MIN TEMP:  35; 6HR MAX TEMP:  43;

MITCHELL       PTCLDY    44  38  79 NW14      29.80R
PIERRE         CLOUDY    43  34  70 NW36G43   29.92R
6HR MIN TEMP:  43; 6HR MAX TEMP:  60;

MOBRIDGE       CLOUDY    36  29  75 N32G43    29.96R
RAPID CITY     MOCLDY    44  31  60 N26G38    30.06R
6HR MIN TEMP:  44; 6HR MAX TEMP:  58;

$$

  *****  SOME WEATHER IN NEARBY STATES *****

CITY           SKY/WX    TMP DP  RH WIND       PRES   REMARKS
GLASGOW MT     CLEAR     35  29  78 NW10      30.25R
6HR MIN TEMP:  33; 6HR MAX TEMP:  38;

GREAT FALLS MT CLOUDY    39  32  76 E7        30.31R
6HR MIN TEMP:  39; 6HR MAX TEMP:  47;

CHEYENNE WY    MOCLDY    41  32  70 N16G23    30.15R
6HR MIN TEMP:  41; 6HR MAX TEMP:  50;

SCOTTSBLUFF NE CLOUDY    46  36  68 W10       30.12R
OMAHA NE       PTCLDY    49  34  56 NW5       29.69S
6HR MIN TEMP:  46; 6HR MAX TEMP:  59;

DES MOINES IA  CLOUDY    50  37  61 E7        29.71R
6HR MIN TEMP:  42; 6HR MAX TEMP:  52;

DAVENPORT IA   CLOUDY    36  29  75 SE23      29.84F
6HR MIN TEMP:  32; 6HR MAX TEMP:  36;

CHICAGO IL     CLOUDY    31  21  66 SE16G23   29.99F WCI  20
6HR MIN TEMP:  31; 6HR MAX TEMP:  33;

EAU CLAIRE WI  MOCLDY    29  23  78 SE8       29.83S WCI  21
6HR MIN TEMP:  28; 6HR MAX TEMP:  30;

LA CROSSE WI   CLOUDY    35  23  61 S15       29.84R
6HR MIN TEMP:  30; 6HR MAX TEMP:  36;

$$

  *****  SOME NATIONAL WEATHER *****

CITY           SKY/WX    TMP DP  RH WIND       PRES   REMARKS
LA GUARDIA NY  CLEAR     31  10  41 NW7       30.19R WCI  24
6HR MIN TEMP:  30; 6HR MAX TEMP:  34;

RALEIGH NC     PTCLDY    34  14  43 CALM      30.29R




U.S. Dept. of Commerce
NOAA National Weather Service
1325 East West Highway
Silver Spring, MD 20910
E-mail: w-nws.webmaster@noaa.gov
Page last modified: May 16, 2007
NATIONAL WEATHER SERVICE: for Safety, for Work, for Fun - FOR LIFE